Year,Month,Day,Hour,Minute,Value (Times are PST for temperature in C)
2012,02,14,00,00,4.70
2012,02,14,00,02,4.80
2012,02,14,00,03,4.90
2012,02,14,00,04,5.00
2012,02,14,00,05,5.10
2012,02,14,00,06,5.10
2012,02,14,00,07,5.20
2012,02,14,00,08,5.20
2012,02,14,00,10,5.30
2012,02,14,00,11,5.30
2012,02,14,00,12,5.30
2012,02,14,00,14,5.30
2012,02,14,00,15,5.40
2012,02,14,00,16,5.30
2012,02,14,00,17,5.30
2012,02,14,00,19,5.30
2012,02,14,00,20,5.30
2012,02,14,00,21,5.30
2012,02,14,00,22,5.30
2012,02,14,00,23,5.30
2012,02,14,00,24,5.30
2012,02,14,00,25,5.30
2012,02,14,00,26,5.30
2012,02,14,00,27,5.30
2012,02,14,00,28,5.20
2012,02,14,00,29,5.20
2012,02,14,00,30,5.20
2012,02,14,00,31,5.20
2012,02,14,00,32,5.20
2012,02,14,00,33,5.20
2012,02,14,00,34,5.20
2012,02,14,00,35,5.20
2012,02,14,00,36,5.20
2012,02,14,00,38,5.20
2012,02,14,00,39,5.20
2012,02,14,00,40,5.20
2012,02,14,00,41,5.20
2012,02,14,00,42,5.30
2012,02,14,00,43,5.30
2012,02,14,00,44,5.30
2012,02,14,00,45,5.30
2012,02,14,00,46,5.30
2012,02,14,00,48,5.40
2012,02,14,00,49,5.40
2012,02,14,00,50,5.40
2012,02,14,00,52,5.50
2012,02,14,00,53,5.50
2012,02,14,00,54,5.60
2012,02,14,00,55,5.60
2012,02,14,00,56,5.60
2012,02,14,00,57,5.70
2012,02,14,00,58,5.70
2012,02,14,00,59,5.70
2012,02,14,01,00,5.70
2012,02,14,01,01,5.70
2012,02,14,01,02,5.70
2012,02,14,01,03,5.70
2012,02,14,01,04,5.70
2012,02,14,01,05,5.70
2012,02,14,01,06,5.70
2012,02,14,01,08,5.70
2012,02,14,01,09,5.70
2012,02,14,01,10,5.60
2012,02,14,01,11,5.50
2012,02,14,01,13,5.40
2012,02,14,01,14,5.40
2012,02,14,01,15,5.40
2012,02,14,01,16,5.40
2012,02,14,01,18,5.40
2012,02,14,01,19,5.40
2012,02,14,01,20,5.40
2012,02,14,01,21,5.40
2012,02,14,01,23,5.40
2012,02,14,01,24,5.30
2012,02,14,01,25,5.30
2012,02,14,01,26,5.30
2012,02,14,01,27,5.30
2012,02,14,01,28,5.30
2012,02,14,01,29,5.30
2012,02,14,01,30,5.30
2012,02,14,01,31,5.30
2012,02,14,01,32,5.20
2012,02,14,01,34,5.20
2012,02,14,01,35,5.20
2012,02,14,01,36,5.20
2012,02,14,01,37,5.30
2012,02,14,01,39,5.30
2012,02,14,01,40,5.30
2012,02,14,01,41,5.40
2012,02,14,01,42,5.40
2012,02,14,01,43,5.40
2012,02,14,01,44,5.40
2012,02,14,01,45,5.40
2012,02,14,01,46,5.40
2012,02,14,01,47,5.40
2012,02,14,01,49,5.40
2012,02,14,01,50,5.40
2012,02,14,01,51,5.40
2012,02,14,01,52,5.40
2012,02,14,01,54,5.40
2012,02,14,01,55,5.40
2012,02,14,01,56,5.40
2012,02,14,01,57,5.40
2012,02,14,01,59,5.50
2012,02,14,02,00,5.60
2012,02,14,02,01,5.60
2012,02,14,02,02,5.60
2012,02,14,02,04,5.70
2012,02,14,02,05,5.70
2012,02,14,02,06,5.70
2012,02,14,02,07,5.70
2012,02,14,02,08,5.70
2012,02,14,02,09,5.80
2012,02,14,02,10,5.80
2012,02,14,02,11,5.80
2012,02,14,02,12,5.80
2012,02,14,02,13,5.80
2012,02,14,02,14,5.80
2012,02,14,02,15,5.80
2012,02,14,02,16,5.70
2012,02,14,02,17,5.70
2012,02,14,02,18,5.70
2012,02,14,02,19,5.70
2012,02,14,02,20,5.70
2012,02,14,02,21,5.70
2012,02,14,02,23,5.70
2012,02,14,02,24,5.70
2012,02,14,02,25,5.70
2012,02,14,02,26,5.70
2012,02,14,02,28,5.70
2012,02,14,02,31,5.70
2012,02,14,02,33,5.70
2012,02,14,02,34,5.70
2012,02,14,02,35,5.80
2012,02,14,02,36,5.80
2012,02,14,02,37,5.80
2012,02,14,02,39,5.70
2012,02,14,02,40,5.70
2012,02,14,02,41,5.70
2012,02,14,02,42,5.70
2012,02,14,02,45,5.70
2012,02,14,02,46,5.70
2012,02,14,02,48,5.70
2012,02,14,02,49,5.70
2012,02,14,02,50,5.70
2012,02,14,02,51,5.70
2012,02,14,02,52,5.70
2012,02,14,02,54,5.70
2012,02,14,02,55,5.70
2012,02,14,02,56,5.70
2012,02,14,02,57,5.70
2012,02,14,02,58,5.70
2012,02,14,03,00,5.60
2012,02,14,03,01,5.60
2012,02,14,03,02,5.60
2012,02,14,03,03,5.60
2012,02,14,03,05,5.60
2012,02,14,03,06,5.60
2012,02,14,03,07,5.60
2012,02,14,03,08,5.50
2012,02,14,03,10,5.50
2012,02,14,03,11,5.50
2012,02,14,03,12,5.50
2012,02,14,03,13,5.50
2012,02,14,03,15,5.50
2012,02,14,03,16,5.40
2012,02,14,03,17,5.50
2012,02,14,03,18,5.50
2012,02,14,03,20,5.50
2012,02,14,03,21,5.50
2012,02,14,03,22,5.40
2012,02,14,03,23,5.50
2012,02,14,03,25,5.40
2012,02,14,03,26,5.40
2012,02,14,03,27,5.40
2012,02,14,03,29,5.40
2012,02,14,03,30,5.40
2012,02,14,03,31,5.40
2012,02,14,03,32,5.40
2012,02,14,03,34,5.40
2012,02,14,03,35,5.40
2012,02,14,03,36,5.40
2012,02,14,03,37,5.40
2012,02,14,03,38,5.40
2012,02,14,03,39,5.40
2012,02,14,03,40,5.40
2012,02,14,03,41,5.40
2012,02,14,03,43,5.50
2012,02,14,03,44,5.50
2012,02,14,03,45,5.50
2012,02,14,03,46,5.50
2012,02,14,03,47,5.50
2012,02,14,03,48,5.50
2012,02,14,03,49,5.50
2012,02,14,03,50,5.60
2012,02,14,03,52,5.60
2012,02,14,03,53,5.60
2012,02,14,03,54,5.60
2012,02,14,03,55,5.60
2012,02,14,03,57,5.60
2012,02,14,03,58,5.60
2012,02,14,03,59,5.60
2012,02,14,04,00,5.60
2012,02,14,04,01,5.60
2012,02,14,04,02,5.60
2012,02,14,04,03,5.60
2012,02,14,04,04,5.60
2012,02,14,04,05,5.60
2012,02,14,04,06,5.60
2012,02,14,04,07,5.60
2012,02,14,04,08,5.60
2012,02,14,04,09,5.60
2012,02,14,04,10,5.60
2012,02,14,04,12,5.70
2012,02,14,04,13,5.60
2012,02,14,04,14,5.70
2012,02,14,04,16,5.60
2012,02,14,04,17,5.60
2012,02,14,04,18,5.70
2012,02,14,04,20,5.70
2012,02,14,04,21,5.60
2012,02,14,04,22,5.60
2012,02,14,04,23,5.60
2012,02,14,04,24,5.60
2012,02,14,04,26,5.60
2012,02,14,04,27,5.60
2012,02,14,04,28,5.60
2012,02,14,04,29,5.60
2012,02,14,04,30,5.70
2012,02,14,04,32,5.70
2012,02,14,04,33,5.70
2012,02,14,04,34,5.70
2012,02,14,04,35,5.70
2012,02,14,04,36,5.70
2012,02,14,04,37,5.70
2012,02,14,04,38,5.70
2012,02,14,04,39,5.70
2012,02,14,04,40,5.70
2012,02,14,04,41,5.70
2012,02,14,04,42,5.70
2012,02,14,04,43,5.70
2012,02,14,04,44,5.70
2012,02,14,04,45,5.70
2012,02,14,04,47,5.70
2012,02,14,04,48,5.70
2012,02,14,04,49,5.70
2012,02,14,04,50,5.70
2012,02,14,04,52,5.70
2012,02,14,04,53,5.70
2012,02,14,04,54,5.70
2012,02,14,04,56,5.70
2012,02,14,04,57,5.70
2012,02,14,04,58,5.70
2012,02,14,04,59,5.70
2012,02,14,05,00,5.70
2012,02,14,05,01,5.70
2012,02,14,05,02,5.60
2012,02,14,05,03,5.60
2012,02,14,05,04,5.60
2012,02,14,05,06,5.60
2012,02,14,05,07,5.60
2012,02,14,05,08,5.60
2012,02,14,05,09,5.60
2012,02,14,05,10,5.60
2012,02,14,05,12,5.60
2012,02,14,05,13,5.60
2012,02,14,05,14,5.60
2012,02,14,05,15,5.60
2012,02,14,05,17,5.60
2012,02,14,05,18,5.60
2012,02,14,05,19,5.60
2012,02,14,05,20,5.60
2012,02,14,05,22,5.60
2012,02,14,05,23,5.60
2012,02,14,05,24,5.60
2012,02,14,05,25,5.60
2012,02,14,05,27,5.60
2012,02,14,05,28,5.60
2012,02,14,05,29,5.60
2012,02,14,05,30,5.60
2012,02,14,05,32,5.60
2012,02,14,05,33,5.60
2012,02,14,05,34,5.60
2012,02,14,05,35,5.60
2012,02,14,05,37,5.50
2012,02,14,05,38,5.50
2012,02,14,05,39,5.50
2012,02,14,05,40,5.50
2012,02,14,05,42,5.40
2012,02,14,05,43,5.40
2012,02,14,05,44,5.40
2012,02,14,05,45,5.40
2012,02,14,05,47,5.40
2012,02,14,05,48,5.40
2012,02,14,05,49,5.40
2012,02,14,05,51,5.40
2012,02,14,05,52,5.30
2012,02,14,05,53,5.30
2012,02,14,05,54,5.30
2012,02,14,05,56,5.30
2012,02,14,05,57,5.30
2012,02,14,05,58,5.20
2012,02,14,05,59,5.20
2012,02,14,06,01,5.30
2012,02,14,06,02,5.20
2012,02,14,06,03,5.20
2012,02,14,06,04,5.20
2012,02,14,06,05,5.20
2012,02,14,06,06,5.20
2012,02,14,06,07,5.20
2012,02,14,06,08,5.20
2012,02,14,06,10,5.20
2012,02,14,06,11,5.30
2012,02,14,06,12,5.30
2012,02,14,06,13,5.30
2012,02,14,06,14,5.30
2012,02,14,06,15,5.30
2012,02,14,06,16,5.30
2012,02,14,06,17,5.30
2012,02,14,06,18,5.30
2012,02,14,06,20,5.40
2012,02,14,06,21,5.40
2012,02,14,06,22,5.40
2012,02,14,06,23,5.40
2012,02,14,06,25,5.40
2012,02,14,06,26,5.40
2012,02,14,06,27,5.40
2012,02,14,06,28,5.40
2012,02,14,06,29,5.40
2012,02,14,06,30,5.30
2012,02,14,06,31,5.40
2012,02,14,06,32,5.40
2012,02,14,06,33,5.40
2012,02,14,06,35,5.30
2012,02,14,06,36,5.30
2012,02,14,06,37,5.30
2012,02,14,06,38,5.30
2012,02,14,06,40,5.30
2012,02,14,06,41,5.30
2012,02,14,06,42,5.30
2012,02,14,06,43,5.30
2012,02,14,06,45,5.30
2012,02,14,06,46,5.30
2012,02,14,06,47,5.30
2012,02,14,06,48,5.30
2012,02,14,06,50,5.30
2012,02,14,06,51,5.30
2012,02,14,06,52,5.40
2012,02,14,06,53,5.40
2012,02,14,06,55,5.40
2012,02,14,06,56,5.40
2012,02,14,06,57,5.40
2012,02,14,06,58,5.40
2012,02,14,07,00,5.30
2012,02,14,07,01,5.30
2012,02,14,07,02,5.30
2012,02,14,07,03,5.30
2012,02,14,07,05,5.30
2012,02,14,07,06,5.30
2012,02,14,07,07,5.30
2012,02,14,07,08,5.30
2012,02,14,07,10,5.30
2012,02,14,07,11,5.30
2012,02,14,07,12,5.30
2012,02,14,07,13,5.30
2012,02,14,07,15,5.30
2012,02,14,07,16,5.30
2012,02,14,07,17,5.20
2012,02,14,07,18,5.30
2012,02,14,07,19,5.30
2012,02,14,07,21,5.30
2012,02,14,07,22,5.30
2012,02,14,07,23,5.30
2012,02,14,07,24,5.40
2012,02,14,07,25,5.40
2012,02,14,07,26,5.40
2012,02,14,07,27,5.40
2012,02,14,07,28,5.40
2012,02,14,07,30,5.40
2012,02,14,07,31,5.40
2012,02,14,07,32,5.40
2012,02,14,07,33,5.40
2012,02,14,07,34,5.40
2012,02,14,07,35,5.40
2012,02,14,07,36,5.40
2012,02,14,07,37,5.40
2012,02,14,07,38,5.40
2012,02,14,07,40,5.40
2012,02,14,07,41,5.40
2012,02,14,07,42,5.40
2012,02,14,07,43,5.40
2012,02,14,07,45,5.40
2012,02,14,07,46,5.40
2012,02,14,07,47,5.40
2012,02,14,07,48,5.40
2012,02,14,07,50,5.40
2012,02,14,07,51,5.40
2012,02,14,07,52,5.40
2012,02,14,07,53,5.40
2012,02,14,07,55,5.40
2012,02,14,07,56,5.40
2012,02,14,07,57,5.30
2012,02,14,07,58,5.30
2012,02,14,07,59,5.30
2012,02,14,08,00,5.30
2012,02,14,08,01,5.30
2012,02,14,08,02,5.30
2012,02,14,08,03,5.30
2012,02,14,08,04,5.30
2012,02,14,08,05,5.20
2012,02,14,08,06,5.20
2012,02,14,08,07,5.20
2012,02,14,08,09,5.20
2012,02,14,08,10,5.20
2012,02,14,08,11,5.20
2012,02,14,08,13,5.20
2012,02,14,08,14,5.20
2012,02,14,08,15,5.20
2012,02,14,08,16,5.20
2012,02,14,08,18,5.20
2012,02,14,08,19,5.20
2012,02,14,08,20,5.20
2012,02,14,08,21,5.20
2012,02,14,08,23,5.10
2012,02,14,08,24,5.20
2012,02,14,08,25,5.10
2012,02,14,08,26,5.20
2012,02,14,08,28,5.20
2012,02,14,08,29,5.20
2012,02,14,08,30,5.20
2012,02,14,08,31,5.20
2012,02,14,08,33,5.20
2012,02,14,08,34,5.20
2012,02,14,08,35,5.20
2012,02,14,08,36,5.20
2012,02,14,08,37,5.20
2012,02,14,08,38,5.20
2012,02,14,08,39,5.20
2012,02,14,08,40,5.20
2012,02,14,08,41,5.20
2012,02,14,08,43,5.20
2012,02,14,08,44,5.10
2012,02,14,08,45,5.10
2012,02,14,08,46,5.00
2012,02,14,08,48,4.90
2012,02,14,08,49,4.90
2012,02,14,08,50,4.90
2012,02,14,08,51,4.90
2012,02,14,08,53,4.90
2012,02,14,08,54,5.00
2012,02,14,08,55,5.00
2012,02,14,08,57,5.00
2012,02,14,08,58,5.00
2012,02,14,08,59,5.10
2012,02,14,09,00,5.10
2012,02,14,09,02,5.10
2012,02,14,09,03,5.10
2012,02,14,09,04,5.20
2012,02,14,09,06,5.20
2012,02,14,09,07,5.20
2012,02,14,09,08,5.20
2012,02,14,09,09,5.20
2012,02,14,09,10,5.20
2012,02,14,09,11,5.20
2012,02,14,09,12,5.20
2012,02,14,09,13,5.20
2012,02,14,09,15,5.20
2012,02,14,09,16,5.30
2012,02,14,09,17,5.30
2012,02,14,09,18,5.30
2012,02,14,09,19,5.30
2012,02,14,09,20,5.30
2012,02,14,09,21,5.30
2012,02,14,09,22,5.30
2012,02,14,09,24,5.30
2012,02,14,09,25,5.30
2012,02,14,09,26,5.30
2012,02,14,09,27,5.30
2012,02,14,09,28,5.30
2012,02,14,09,29,5.30
2012,02,14,09,30,5.30
2012,02,14,09,31,5.30
2012,02,14,09,33,5.30
2012,02,14,09,34,5.30
2012,02,14,09,35,5.30
2012,02,14,09,36,5.30
2012,02,14,09,38,5.30
2012,02,14,09,39,5.30
2012,02,14,09,40,5.30
2012,02,14,09,41,5.30
2012,02,14,09,42,5.30
2012,02,14,09,43,5.40
2012,02,14,09,44,5.40
2012,02,14,09,45,5.40
2012,02,14,09,46,5.40
2012,02,14,09,48,5.40
2012,02,14,09,49,5.40
2012,02,14,09,50,5.40
2012,02,14,09,51,5.40
2012,02,14,09,53,5.40
2012,02,14,09,54,5.40
2012,02,14,09,55,5.40
2012,02,14,09,56,5.40
2012,02,14,09,58,5.40
2012,02,14,09,59,5.40
2012,02,14,10,00,5.40
2012,02,14,10,01,5.40
2012,02,14,10,03,5.40
2012,02,14,10,04,5.40
2012,02,14,10,05,5.40
2012,02,14,10,06,5.40
2012,02,14,10,08,5.30
2012,02,14,10,09,5.30
2012,02,14,10,10,5.30
2012,02,14,10,12,5.30
2012,02,14,10,13,5.30
2012,02,14,10,14,5.30
2012,02,14,10,16,5.30
2012,02,14,10,17,5.30
2012,02,14,10,18,5.30
2012,02,14,10,19,5.30
2012,02,14,10,21,5.30
2012,02,14,10,22,5.30
2012,02,14,10,23,5.30
2012,02,14,10,24,5.30
2012,02,14,10,25,5.30
2012,02,14,10,26,5.30
2012,02,14,10,27,5.30
2012,02,14,10,28,5.30
2012,02,14,10,30,5.30
2012,02,14,10,31,5.30
2012,02,14,10,32,5.30
2012,02,14,10,34,5.30
2012,02,14,10,35,5.30
2012,02,14,10,36,5.20
2012,02,14,10,37,5.20
2012,02,14,10,39,5.20
2012,02,14,10,40,5.20
2012,02,14,10,41,5.20
2012,02,14,10,42,5.20
2012,02,14,10,43,5.20
2012,02,14,10,45,5.20
2012,02,14,10,46,5.20
2012,02,14,10,47,5.20
2012,02,14,10,48,5.10
2012,02,14,10,49,5.10
2012,02,14,10,51,5.10
2012,02,14,10,52,5.20
2012,02,14,10,53,5.20
2012,02,14,10,55,5.20
2012,02,14,10,56,5.20
2012,02,14,10,57,5.20
2012,02,14,10,58,5.30
2012,02,14,10,59,5.30
2012,02,14,11,00,5.30
2012,02,14,11,01,5.30
2012,02,14,11,02,5.30
2012,02,14,11,04,5.30
2012,02,14,11,05,5.40
2012,02,14,11,06,5.40
2012,02,14,11,07,5.40
2012,02,14,11,09,5.40
2012,02,14,11,10,5.40
2012,02,14,11,11,5.40
2012,02,14,11,12,5.40
2012,02,14,11,13,5.40
2012,02,14,11,15,5.40
2012,02,14,11,16,5.40
2012,02,14,11,17,5.50
2012,02,14,11,18,5.50
2012,02,14,11,20,5.50
2012,02,14,11,21,5.60
2012,02,14,11,22,5.60
2012,02,14,11,23,5.60
2012,02,14,11,25,5.60
2012,02,14,11,26,5.60
2012,02,14,11,27,5.60
2012,02,14,11,28,5.60
2012,02,14,11,30,5.60
2012,02,14,11,31,5.60
2012,02,14,11,32,5.60
2012,02,14,11,33,5.60
2012,02,14,11,34,5.60
2012,02,14,11,35,5.60
2012,02,14,11,36,5.60
2012,02,14,11,37,5.60
2012,02,14,11,38,5.70
2012,02,14,11,40,5.70
2012,02,14,11,41,5.60
2012,02,14,11,42,5.60
2012,02,14,11,43,5.60
2012,02,14,11,45,5.60
2012,02,14,11,46,5.60
2012,02,14,11,47,5.60
2012,02,14,11,48,5.50
2012,02,14,11,50,5.60
2012,02,14,11,51,5.60
2012,02,14,11,52,5.60
2012,02,14,11,53,5.60
2012,02,14,11,54,5.60
2012,02,14,11,56,5.60
2012,02,14,11,57,5.60
2012,02,14,11,58,5.60
2012,02,14,11,59,5.60
2012,02,14,12,00,5.60
2012,02,14,12,01,5.60
2012,02,14,12,02,5.60
2012,02,14,12,03,5.50
2012,02,14,12,04,5.50
2012,02,14,12,06,5.50
2012,02,14,12,07,5.60
2012,02,14,12,08,5.50
2012,02,14,12,09,5.50
2012,02,14,12,11,5.50
2012,02,14,12,12,5.50
2012,02,14,12,13,5.50
2012,02,14,12,14,5.50
2012,02,14,12,16,5.50
2012,02,14,12,17,5.60
2012,02,14,12,18,5.60
2012,02,14,12,19,5.60
2012,02,14,12,21,5.70
2012,02,14,12,22,5.70
2012,02,14,12,23,5.70
2012,02,14,12,24,5.80
2012,02,14,12,25,5.80
2012,02,14,12,26,5.80
2012,02,14,12,27,5.80
2012,02,14,12,28,5.90
2012,02,14,12,30,5.90
2012,02,14,12,31,5.90
2012,02,14,12,32,5.90
2012,02,14,12,33,5.80
2012,02,14,12,35,5.80
2012,02,14,12,36,5.80
2012,02,14,12,37,5.70
2012,02,14,12,38,5.70
2012,02,14,12,39,5.70
2012,02,14,12,40,5.60
2012,02,14,12,41,5.60
2012,02,14,12,42,5.60
2012,02,14,12,44,5.50
2012,02,14,12,45,5.50
2012,02,14,12,46,5.50
2012,02,14,12,47,5.50
2012,02,14,12,49,5.60
2012,02,14,12,50,5.60
2012,02,14,12,51,5.60
2012,02,14,12,53,5.60
2012,02,14,12,54,5.70
2012,02,14,12,55,5.70
2012,02,14,12,57,5.70
2012,02,14,12,58,5.70
2012,02,14,12,59,5.70
2012,02,14,13,00,5.60
2012,02,14,13,01,5.60
2012,02,14,13,02,5.60
2012,02,14,13,03,5.60
2012,02,14,13,04,5.50
2012,02,14,13,06,5.40
2012,02,14,13,07,5.40
2012,02,14,13,08,5.40
2012,02,14,13,09,5.40
2012,02,14,13,11,5.40
2012,02,14,13,12,5.40
2012,02,14,13,13,5.40
2012,02,14,13,14,5.40
2012,02,14,13,15,5.40
2012,02,14,13,16,5.40
2012,02,14,13,17,5.40
2012,02,14,13,18,5.50
2012,02,14,13,20,5.50
2012,02,14,13,21,5.50
2012,02,14,13,22,5.60
2012,02,14,13,23,5.50
2012,02,14,13,25,5.60
2012,02,14,13,26,5.60
2012,02,14,13,27,5.50
2012,02,14,13,28,5.60
2012,02,14,13,29,5.60
2012,02,14,13,30,5.60
2012,02,14,13,31,5.60
2012,02,14,13,32,5.60
2012,02,14,13,33,5.60
2012,02,14,13,35,5.60
2012,02,14,13,36,5.70
2012,02,14,13,37,5.70
2012,02,14,13,39,5.80
2012,02,14,13,40,5.80
2012,02,14,13,41,5.80
2012,02,14,13,42,5.80
2012,02,14,13,43,5.80
2012,02,14,13,44,5.80
2012,02,14,13,45,5.80
2012,02,14,13,46,5.80
2012,02,14,13,47,5.80
2012,02,14,13,49,5.90
2012,02,14,13,50,5.90
2012,02,14,13,52,6.00
2012,02,14,13,53,6.00
2012,02,14,13,54,6.00
2012,02,14,13,55,6.10
2012,02,14,13,57,6.10
2012,02,14,13,58,6.20
2012,02,14,13,59,6.30
2012,02,14,14,00,6.40
2012,02,14,14,02,6.40
2012,02,14,14,03,6.60
2012,02,14,14,04,6.60
2012,02,14,14,06,6.70
2012,02,14,14,07,6.70
2012,02,14,14,08,6.80
2012,02,14,14,09,6.80
2012,02,14,14,11,6.90
2012,02,14,14,12,6.90
2012,02,14,14,13,7.10
2012,02,14,14,14,7.10
2012,02,14,14,16,7.10
2012,02,14,14,17,7.20
2012,02,14,14,18,7.20
2012,02,14,14,19,7.30
2012,02,14,14,21,7.40
2012,02,14,14,22,7.50
2012,02,14,14,23,7.60
2012,02,14,14,25,7.70
2012,02,14,14,26,7.70
2012,02,14,14,27,7.70
2012,02,14,14,28,7.70
2012,02,14,14,30,7.70
2012,02,14,14,31,7.70
2012,02,14,14,32,7.60
2012,02,14,14,33,7.60
2012,02,14,14,35,7.60
2012,02,14,14,36,7.60
2012,02,14,14,37,7.60
2012,02,14,14,38,7.60
2012,02,14,14,39,7.60
2012,02,14,14,41,7.60
2012,02,14,14,42,7.50
2012,02,14,14,43,7.50
2012,02,14,14,44,7.50
2012,02,14,14,46,7.50
2012,02,14,14,47,7.40
2012,02,14,14,48,7.40
2012,02,14,14,49,7.40
2012,02,14,14,51,7.40
2012,02,14,14,52,7.50
2012,02,14,14,53,7.40
2012,02,14,14,54,7.40
2012,02,14,14,56,7.40
2012,02,14,14,57,7.40
2012,02,14,14,58,7.40
2012,02,14,14,59,7.40
2012,02,14,15,00,7.30
2012,02,14,15,02,7.30
2012,02,14,15,03,7.30
2012,02,14,15,04,7.40
2012,02,14,15,05,7.40
2012,02,14,15,06,7.40
2012,02,14,15,07,7.40
2012,02,14,15,08,7.40
2012,02,14,15,09,7.40
2012,02,14,15,11,7.40
2012,02,14,15,12,7.40
2012,02,14,15,13,7.40
2012,02,14,15,14,7.30
2012,02,14,15,16,7.40
2012,02,14,15,17,7.40
2012,02,14,15,18,7.50
2012,02,14,15,19,7.50
2012,02,14,15,21,7.40
2012,02,14,15,22,7.30
2012,02,14,15,23,7.30
2012,02,14,15,25,7.30
2012,02,14,15,26,7.30
2012,02,14,15,27,7.40
2012,02,14,15,29,7.40
2012,02,14,15,30,7.40
2012,02,14,15,31,7.30
2012,02,14,15,32,7.30
2012,02,14,15,34,7.40
2012,02,14,15,35,7.40
2012,02,14,15,36,7.40
2012,02,14,15,37,7.30
2012,02,14,15,39,7.30
2012,02,14,15,40,7.30
2012,02,14,15,41,7.30
2012,02,14,15,43,7.30
2012,02,14,15,44,7.30
2012,02,14,15,45,7.30
2012,02,14,15,46,7.30
2012,02,14,15,48,7.30
2012,02,14,15,49,7.20
2012,02,14,15,50,7.20
2012,02,14,15,52,7.10
2012,02,14,15,53,7.10
2012,02,14,15,54,7.00
2012,02,14,15,55,6.90
2012,02,14,15,57,6.90
2012,02,14,15,58,6.90
2012,02,14,15,59,6.90
2012,02,14,16,00,6.90
2012,02,14,16,01,6.90
2012,02,14,16,03,6.80
2012,02,14,16,04,6.80
2012,02,14,16,05,6.80
2012,02,14,16,06,6.80
2012,02,14,16,08,6.80
2012,02,14,16,09,6.70
2012,02,14,16,10,6.70
2012,02,14,16,12,6.70
2012,02,14,16,13,6.70
2012,02,14,16,14,6.70
2012,02,14,16,15,6.70
2012,02,14,16,16,6.80
2012,02,14,16,18,6.80
2012,02,14,16,19,6.80
2012,02,14,16,20,6.90
2012,02,14,16,21,7.00
2012,02,14,16,22,7.10
2012,02,14,16,24,7.10
2012,02,14,16,25,7.20
2012,02,14,16,26,7.30
2012,02,14,16,28,7.30
2012,02,14,16,29,7.40
2012,02,14,16,30,7.40
2012,02,14,16,31,7.40
2012,02,14,16,32,7.40
2012,02,14,16,34,7.40
2012,02,14,16,35,7.50
2012,02,14,16,36,7.50
2012,02,14,16,37,7.50
2012,02,14,16,39,7.50
2012,02,14,16,40,7.50
2012,02,14,16,41,7.50
2012,02,14,16,42,7.40
2012,02,14,16,44,7.40
2012,02,14,16,45,7.40
2012,02,14,16,46,7.40
2012,02,14,16,47,7.30
2012,02,14,16,48,7.30
2012,02,14,16,50,7.20
2012,02,14,16,51,7.20
2012,02,14,16,52,7.10
2012,02,14,16,53,7.10
2012,02,14,16,55,7.10
2012,02,14,16,56,7.10
2012,02,14,16,57,7.00
2012,02,14,16,58,7.00
2012,02,14,16,59,6.90
2012,02,14,17,01,6.90
2012,02,14,17,02,6.90
2012,02,14,17,03,6.90
2012,02,14,17,05,6.90
2012,02,14,17,06,6.80
2012,02,14,17,07,6.80
2012,02,14,17,08,6.80
2012,02,14,17,10,6.80
2012,02,14,17,11,6.70
2012,02,14,17,12,6.70
2012,02,14,17,14,6.60
2012,02,14,17,15,6.60
2012,02,14,17,16,6.40
2012,02,14,17,17,6.40
2012,02,14,17,18,6.30
2012,02,14,17,19,6.30
2012,02,14,17,21,6.20
2012,02,14,17,22,6.20
2012,02,14,17,23,6.10
2012,02,14,17,24,6.00
2012,02,14,17,26,6.00
2012,02,14,17,27,5.90
2012,02,14,17,28,5.80
2012,02,14,17,29,5.80
2012,02,14,17,31,5.80
2012,02,14,17,32,5.70
2012,02,14,17,33,5.60
2012,02,14,17,34,5.60
2012,02,14,17,35,5.60
2012,02,14,17,37,5.50
2012,02,14,17,38,5.40
2012,02,14,17,39,5.40
2012,02,14,17,41,5.30
2012,02,14,17,42,5.30
2012,02,14,17,43,5.20
2012,02,14,17,44,5.20
2012,02,14,17,45,5.20
2012,02,14,17,47,5.10
2012,02,14,17,48,5.10
2012,02,14,17,49,5.10
2012,02,14,17,51,5.10
2012,02,14,17,52,5.00
2012,02,14,17,53,4.90
2012,02,14,17,54,4.90
2012,02,14,17,55,4.90
2012,02,14,17,57,4.90
2012,02,14,17,58,4.80
2012,02,14,17,59,4.80
2012,02,14,18,00,4.80
2012,02,14,18,02,4.80
2012,02,14,18,03,4.80
2012,02,14,18,04,4.80
2012,02,14,18,05,4.80
2012,02,14,18,06,4.80
2012,02,14,18,07,4.80
2012,02,14,18,08,4.80
2012,02,14,18,09,4.80
2012,02,14,18,11,4.80
2012,02,14,18,12,4.70
2012,02,14,18,13,4.70
2012,02,14,18,14,4.70
2012,02,14,18,16,4.70
2012,02,14,18,17,4.70
2012,02,14,18,18,4.70
2012,02,14,18,19,4.70
2012,02,14,18,21,4.60
2012,02,14,18,22,4.60
2012,02,14,18,23,4.60
2012,02,14,18,24,4.60
2012,02,14,18,26,4.60
2012,02,14,18,27,4.60
2012,02,14,18,28,4.60
2012,02,14,18,29,4.60
2012,02,14,18,30,4.60
2012,02,14,18,32,4.50
2012,02,14,18,33,4.50
2012,02,14,18,34,4.40
2012,02,14,18,35,4.40
2012,02,14,18,37,4.40
2012,02,14,18,38,4.40
2012,02,14,18,39,4.40
2012,02,14,18,40,4.30
2012,02,14,18,41,4.30
2012,02,14,18,43,4.30
2012,02,14,18,44,4.30
2012,02,14,18,45,4.30
2012,02,14,18,46,4.30
2012,02,14,18,48,4.30
2012,02,14,18,49,4.30
2012,02,14,18,50,4.30
2012,02,14,18,51,4.30
2012,02,14,18,52,4.30
2012,02,14,18,54,4.30
2012,02,14,18,55,4.30
2012,02,14,18,56,4.30
2012,02,14,18,57,4.30
2012,02,14,18,58,4.30
2012,02,14,18,59,4.30
2012,02,14,19,00,4.30
2012,02,14,19,01,4.30
2012,02,14,19,03,4.30
2012,02,14,19,04,4.30
2012,02,14,19,05,4.30
2012,02,14,19,07,4.20
2012,02,14,19,08,4.30
2012,02,14,19,09,4.20
2012,02,14,19,11,4.20
2012,02,14,19,12,4.30
2012,02,14,19,13,4.20
2012,02,14,19,14,4.30
2012,02,14,19,16,4.30
2012,02,14,19,17,4.30
2012,02,14,19,18,4.30
2012,02,14,19,20,4.30
2012,02,14,19,21,4.30
2012,02,14,19,22,4.30
2012,02,14,19,23,4.30
2012,02,14,19,25,4.30
2012,02,14,19,26,4.30
2012,02,14,19,27,4.30
2012,02,14,19,28,4.30
2012,02,14,19,30,4.30
2012,02,14,19,31,4.30
2012,02,14,19,32,4.30
2012,02,14,19,34,4.20
2012,02,14,19,35,4.20
2012,02,14,19,36,4.20
2012,02,14,19,37,4.20
2012,02,14,19,39,4.20
2012,02,14,19,40,4.20
2012,02,14,19,41,4.20
2012,02,14,19,42,4.20
2012,02,14,19,43,4.30
2012,02,14,19,45,4.30
2012,02,14,19,46,4.30
2012,02,14,19,47,4.30
2012,02,14,19,48,4.30
2012,02,14,19,50,4.40
2012,02,14,19,51,4.40
2012,02,14,19,52,4.40
2012,02,14,19,53,4.40
2012,02,14,19,55,4.40
2012,02,14,19,56,4.40
2012,02,14,19,57,4.30
2012,02,14,19,59,4.30
2012,02,14,20,00,4.30
2012,02,14,20,01,4.30
2012,02,14,20,02,4.20
2012,02,14,20,03,4.20
2012,02,14,20,04,4.20
2012,02,14,20,05,4.10
2012,02,14,20,06,4.00
2012,02,14,20,07,3.90
2012,02,14,20,09,3.90
2012,02,14,20,10,3.80
2012,02,14,20,11,3.80
2012,02,14,20,13,3.80
2012,02,14,20,14,3.70
2012,02,14,20,15,3.70
2012,02,14,20,16,3.70
2012,02,14,20,18,3.70
2012,02,14,20,19,3.70
2012,02,14,20,20,3.70
2012,02,14,20,21,3.60
2012,02,14,20,22,3.60
2012,02,14,20,24,3.60
2012,02,14,20,25,3.60
2012,02,14,20,26,3.60
2012,02,14,20,27,3.60
2012,02,14,20,29,3.60
2012,02,14,20,30,3.60
2012,02,14,20,31,3.60
2012,02,14,20,32,3.60
2012,02,14,20,34,3.70
2012,02,14,20,35,3.70
2012,02,14,20,36,3.70
2012,02,14,20,37,3.80
2012,02,14,20,39,3.80
2012,02,14,20,40,3.80
2012,02,14,20,41,3.80
2012,02,14,20,43,3.70
2012,02,14,20,44,3.70
2012,02,14,20,45,3.70
2012,02,14,20,46,3.60
2012,02,14,20,48,3.60
2012,02,14,20,49,3.60
2012,02,14,20,50,3.60
2012,02,14,20,51,3.60
2012,02,14,20,53,3.60
2012,02,14,20,54,3.70
2012,02,14,20,55,3.70
2012,02,14,20,56,3.70
2012,02,14,20,57,3.70
2012,02,14,20,58,3.70
2012,02,14,20,59,3.70
2012,02,14,21,00,3.70
2012,02,14,21,02,3.70
2012,02,14,21,03,3.80
2012,02,14,21,04,3.80
2012,02,14,21,05,3.80
2012,02,14,21,07,3.80
2012,02,14,21,08,3.70
2012,02,14,21,09,3.70
2012,02,14,21,10,3.70
2012,02,14,21,12,3.70
2012,02,14,21,13,3.70
2012,02,14,21,14,3.70
2012,02,14,21,15,3.70
2012,02,14,21,16,3.70
2012,02,14,21,18,3.60
2012,02,14,21,19,3.60
2012,02,14,21,20,3.60
2012,02,14,21,21,3.60
2012,02,14,21,23,3.60
2012,02,14,21,24,3.60
2012,02,14,21,25,3.50
2012,02,14,21,26,3.50
2012,02,14,21,27,3.50
2012,02,14,21,28,3.50
2012,02,14,21,29,3.40
2012,02,14,21,30,3.40
2012,02,14,21,31,3.40
2012,02,14,21,32,3.40
2012,02,14,21,33,3.40
2012,02,14,21,34,3.40
2012,02,14,21,35,3.40
2012,02,14,21,36,3.40
2012,02,14,21,37,3.40
2012,02,14,21,38,3.50
2012,02,14,21,39,3.50
2012,02,14,21,40,3.40
2012,02,14,21,41,3.40
2012,02,14,21,42,3.40
2012,02,14,21,43,3.40
2012,02,14,21,44,3.40
2012,02,14,21,45,3.40
2012,02,14,21,47,3.40